sat.trackr.live / text

‹ back to catalog

COSMOS 2609

NORAD 68754 · 2026-083B

PAYLOAD ACTIVE UNKNOWN

§ Identity

Operator
Country
CIS
Launch date
2026-04-16
Launch site
PLMSC
Launch vehicle
Mass (kg)
RCS (m²)

External: N2YO · Heavens-Above · Gunter

§ Orbital elements

Epoch: 2026-09-19T23:08:21.935328Z

Period
95.63 min
Inclination
98.1357°
Eccentricity
0.0012673
Mean motion
15.05810179 rev/d
Perigee alt
540.2 km
Apogee alt
557.8 km
Semi-major
6,927.2 km
B*
9.9945e-5
RAAN
57.0189°
Arg perigee
71.9487°
Mean anomaly
288.3118°
Rev number
2,349

§ Raw data

COSMOS 26091 68754U 26083B   26262.96414277  .00001382  00000+0  99945-4 0  99902 68754  98.1357  57.0189 0012673  71.9487 288.3118 15.05810179 23496

JSON: /api/v1/satellites/68754 · /tle

For live sub-satellite position, see the globe view (requires WebGL).

§ Visibility from observer

Set your observer location to see the next 7 days of passes ≥ 10°. The values pass through the URL so the page stays shareable.

No JS? Fill the form by hand. The geolocation button needs JavaScript.